8,
Avoca, PA
on Wednesday, December 5, 2012

Wednesday
Previous Day Next Day
Daily Summary
 ActualAverageRecord
Temperature
Mean Temperature °F 34°F  
Max Temperature 60°F 41°F 67°F (2001)
Min Temperature 30°F 27°F 4°F (1926)
Degree Days
Heating Degree Days 20 31  
Month to date heating degree days 90 150  
Since 1 July heating degree days 1317 1463  
Cooling Degree Days 0 0  
Month to date cooling degree days 0 0  
Year to date cooling degree days 864 580  
Moisture
Dew Point 35°F   
Average Humidity 70    
Maximum Humidity 93    
Minimum Humidity 47    
Precipitation
Precipitation 0.25 in 0.10 in 1.37 in (1938)
Month to date precipitation 0.31 0.50  
Year to date precipitation 34.48 36.08  
Wind
Wind Speed 10 mph   
Max Wind Speed 26 mph   
Max Gust Speed 38 mph   
Visibility 9 miles   
Events Rain   

Key: T is trace of precipitation, MM is missing value
Source: NWS Daily Summary
Time(EST)TemperatureDew PointHumidity Pressure Visibility Wind DirectionWind SpeedGust SpeedPrecipitationEvents Conditions
12:45 AM 53.6°F 46.4°F 77% 29.94 in 10.0 miles NNW 19.6 mph 26.5 mph 0.00 in Rain Light Rain
12:54 AM 51.1°F 46.0°F 83% 29.96 in 4.0 miles NNW 10.4 mph 27.6 mph 0.00 in Rain Rain
1:01 AM 50.0°F 46.4°F 87% 29.97 in 2.5 miles NW 6.9 mph 17.3 mph 0.03 in Rain Heavy Rain
1:15 AM 50.0°F 46.4°F 87% 29.98 in 4.0 miles Variable 3.5 mph 19.6 mph 0.08 in Rain Light Rain
1:54 AM 50.0°F 46.0°F 86% 29.99 in 3.0 miles Calm Calm - 0.17 in Rain Rain
2:30 AM 48.2°F 46.4°F 93% 30.00 in 8.0 miles Calm Calm - 0.03 in Rain Light Rain
2:41 AM 48.2°F 46.4°F 93% 30.01 in 5.0 miles WNW 4.6 mph - 0.04 in Rain Light Rain
2:54 AM 48.0°F 45.0°F 89% 30.01 in 5.0 miles NW 6.9 mph - 0.06 in Rain Rain
3:04 AM 48.2°F 44.6°F 87% 30.02 in 7.0 miles West 3.5 mph - 0.01 in Rain Light Rain
3:17 AM 48.2°F 44.6°F 87% 30.01 in 8.0 miles Calm Calm - 0.02 in Rain Light Rain
3:54 AM 48.0°F 44.1°F 86% 29.99 in 10.0 miles Calm Calm - 0.02 in   Overcast
4:50 AM 46.4°F 44.6°F 93% 29.99 in 10.0 miles West 3.5 mph - N/A   Mostly Cloudy
4:54 AM 46.0°F 45.0°F 96% 30.00 in 10.0 miles West 3.5 mph - N/A   Mostly Cloudy
5:05 AM 46.4°F 44.6°F 93% 30.00 in 10.0 miles Calm Calm - N/A   Mostly Cloudy
5:17 AM 46.4°F 44.6°F 93% 30.00 in 10.0 miles Calm Calm - N/A   Overcast
5:38 AM 46.4°F 39.2°F 76% 30.01 in 10.0 miles West 9.2 mph - N/A   Scattered Clouds
5:54 AM 45.0°F 39.9°F 82% 30.02 in 10.0 miles WSW 9.2 mph - N/A   Clear
6:24 AM 44.6°F 39.2°F 81% 30.03 in 10.0 miles West 8.1 mph - N/A   Mostly Cloudy
6:54 AM 44.6°F 39.2°F 81% 30.05 in 10.0 miles West 6.9 mph - N/A   Overcast
7:54 AM 44.1°F 37.9°F 79% 30.07 in 10.0 miles West 3.5 mph - N/A   Mostly Cloudy
9:54 AM 44.1°F 35.1°F 71% 30.09 in 10.0 miles WSW 6.9 mph - N/A   Mostly Cloudy
10:54 AM 45.0°F 34.0°F 65% 30.08 in 10.0 miles West 6.9 mph - N/A   Overcast
11:54 AM 45.0°F 30.0°F 56% 30.07 in 10.0 miles WNW 9.2 mph 19.6 mph N/A   Overcast
12:54 PM 45.0°F 30.9°F 58% 30.07 in 10.0 miles NNW 13.8 mph - N/A   Overcast
1:54 PM 43.0°F 30.9°F 62% 30.08 in 10.0 miles NNW 13.8 mph 26.5 mph N/A   Mostly Cloudy
2:54 PM 42.1°F 27.0°F 55% 30.11 in 10.0 miles NNW 20.7 mph 28.8 mph N/A   Mostly Cloudy
3:54 PM 37.0°F 21.0°F 52% 30.16 in 10.0 miles NW 19.6 mph 29.9 mph N/A   Mostly Cloudy
4:54 PM 36.0°F 18.0°F 48% 30.19 in 10.0 miles NW 18.4 mph 27.6 mph N/A   Mostly Cloudy
5:54 PM 35.1°F 21.0°F 57% 30.22 in 10.0 miles NW 16.1 mph 26.5 mph N/A   Overcast
6:54 PM 34.0°F 21.0°F 59% 30.25 in 10.0 miles NW 11.5 mph - N/A   Overcast
7:54 PM 33.1°F 19.9°F 59% 30.26 in 10.0 miles NNW 13.8 mph 21.9 mph N/A   Overcast
8:54 PM 30.9°F 16.0°F 54% 30.29 in 10.0 miles NNW 13.8 mph - N/A   Overcast
9:54 PM 30.0°F 18.0°F 61% 30.29 in 10.0 miles NNW 12.7 mph 21.9 mph N/A   Overcast
10:54 PM 30.0°F 18.0°F 61% 30.30 in 10.0 miles NNW 10.4 mph - N/A   Overcast
11:54 PM 30.0°F 19.0°F 64% 30.29 in 10.0 miles NNW 6.9 mph - N/A   Overcast
Astronomy
Sunrise:07:13 AM (EST) Moon Rise:11:24 PM (EST)12/5
Sunset:04:33 PM (EST) Moon Set:11:33 AM (EST)12/5
Moon Phase
Dec. 05 Dec. 06 Dec. 13 Dec. 20 Dec. 28

Copyright © 2014 The Weather Underground, Inc.
8,